Notices

What's New in latest Release from April 7th, 2021:

- Updated Glossary, including Speed of Maximum Gust, and Total Hourly Precipitation

- Updated national and regional climate services offices contacts and prices information

- Addition of station inventory lists for 1981-2010, 1971-2000, and 1961-1990 Normals.

If you haven't already, please take our survey and provide feedback about our website: https://eccc.sondage-survey.ca/f/LanguageSelection.aspx?s=442ca660-fcf1-47c0-95a9-59707d6fd709

Hourly Data Report for November 06, 2016

VICTORIA UNIVERSITY CS
BRITISH COLUMBIA

48°27'25.200" N
123°18'16.600" W
60.10 m
1018598
71783
WYJ

Download Data

Hourly Data (November 2016)
Hourly Data Report for November 6, 2016
TIME
LST
Temp Definition
°C
Dew Point Definition
°C
Rel Hum Definition
%
Precip. Amount Definition
mm

Wind Dir Definition
10's deg

Wind Spd Definition
km/h
Visibility Definition
km
Stn Press Definition
kPa
Hmdx Definition


Wind Chill Definition


Weather Definition


00:00 10.4 10.3 99 0.0   0   100.27     LegendNANA
01:00 10.3 10.2 100 0.0 18 2   100.34     LegendNANA
02:00 10.3 10.2 100 0.3 14 1   100.40     LegendNANA
03:00 9.6 9.6 100 0.0 10 2   100.43     LegendNANA
04:00 10.1 10.0 100 0.0 13 1   100.48     LegendNANA
05:00 10.1 10.1 100 0.0 8 2   100.52     LegendNANA
06:00 10.1 10.0 100 0.2 8 4   100.55     LegendNANA
07:00 9.7 9.6 100 0.0 13 4   100.62     LegendNANA
08:00 9.7 9.7 100 0.0 10 2   100.68     LegendNANA
09:00 10.4 10.3 100 0.0 12 2   100.70     LegendNANA
10:00 10.3 8.7 90 0.0 7 4   100.75     LegendNANA
11:00 11.2 9.8 91 0.0 6 4   100.82     LegendNANA
12:00 12.0 9.6 85 0.0 9 5   100.80     LegendNANA
13:00 13.1 10.0 81 0.0 9 5   100.79     LegendNANA
14:00 12.2 9.9 86 0.0 9 3   100.82     LegendNANA
15:00 10.1 9.0 93 0.0 9 3   100.83     LegendNANA
16:00 9.8 9.2 96 0.0 3 3   100.79     LegendNANA
17:00 9.2 8.8 97 0.0 0 1   100.81     LegendNANA
18:00 9.5 9.1 97 0.0 35 5   100.86     LegendNANA
19:00 9.9 9.4 97 0.0 36 5   100.82     LegendNANA
20:00 10.0 9.4 96 0.0 32 3   100.82     LegendNANA
21:00 11.1 9.5 90 0.0 8 5   100.75     LegendNANA
22:00 11.1 9.3 89 0.0 14 3   100.79     LegendNANA
23:00 10.5 9.4 93 0.0 8 4   100.75     LegendNANA

Notes on Data Quality.

Legend

  • E = Estimated
  • M = Missing
  • NA = Not Available*
  • [empty] = Indicates an unobserved value
Date modified: